When you browse on this site, cookies collect data to enhance your experience and personalize the content and advertising you see.
Visit our Privacy Policy to learn more. By continuing to use the site, you agree to this use of cookies and data.
  • Em Portugal
  • Lista de países
  • Para 7 dias
  • Temperatura da água
  • Mapa do tempo
  • Widgets de tempo
  • user-avatar
    Iniciar Sessão

    Previsão horária em Spirkovo

    Hoje, 29 Maio, Sexta-feira

    Tempo Temperatura Precipitação Vento Pressão Humidade
    00:00 +11°C° 0 mm 1 m/s 751 mmHg 88%
    01:00 +11°C° 0 mm 1 m/s 751 mmHg 88%
    02:00 +10°C° 0 mm 0 m/s 751 mmHg 89%
    03:00 +11°C° 0 mm 1 m/s 751 mmHg 88%
    04:00 +12°C° 0 mm 1 m/s 750 mmHg 87%
    05:00 +13°C° 0 mm 1 m/s 750 mmHg 86%
    06:00 +13°C° 0.1 mm 1 m/s 750 mmHg 86%
    07:00 +13°C° 0.1 mm 1 m/s 750 mmHg 87%
    08:00 +14°C° 0.1 mm 2 m/s 750 mmHg 87%
    09:00 +14°C° 0.4 mm 2 m/s 749 mmHg 89%
    10:00 +12°C° 0.4 mm 3 m/s 749 mmHg 90%
    11:00 +12°C° 0.4 mm 3 m/s 749 mmHg 91%
    12:00 +12°C° 0.2 mm 3 m/s 749 mmHg 91%
    13:00 +13°C° 0.2 mm 3 m/s 749 mmHg 91%
    14:00 +13°C° 0.2 mm 3 m/s 749 mmHg 90%
    15:00 +13°C° 0.1 mm 3 m/s 749 mmHg 89%
    16:00 +14°C° 0.1 mm 3 m/s 749 mmHg 88%
    17:00 +14°C° 0.1 mm 3 m/s 748 mmHg 87%
    18:00 +13°C° 0 mm 3 m/s 748 mmHg 90%
    19:00 +13°C° 0 mm 3 m/s 748 mmHg 92%
    20:00 +12°C° 0 mm 3 m/s 748 mmHg 94%
    21:00 +12°C° 0 mm 3 m/s 748 mmHg 94%
    22:00 +12°C° 0 mm 3 m/s 749 mmHg 95%
    23:00 +12°C° 0 mm 3 m/s 749 mmHg 95%

    Amanhã, 30 Maio, Sábado

    Tempo Temperatura Precipitação Vento Pressão Humidade
    00:00 +12°C° 0 mm 3 m/s 749 mmHg 95%
    01:00 +12°C° 0 mm 4 m/s 749 mmHg 95%
    02:00 +12°C° 0 mm 4 m/s 749 mmHg 95%
    03:00 +12°C° 0.1 mm 4 m/s 748 mmHg 94%
    04:00 +12°C° 0.1 mm 4 m/s 748 mmHg 93%
    05:00 +12°C° 0.1 mm 4 m/s 748 mmHg 92%
    06:00 +12°C° 0 mm 4 m/s 748 mmHg 90%
    07:00 +13°C° 0 mm 5 m/s 748 mmHg 89%
    08:00 +13°C° 0 mm 5 m/s 748 mmHg 87%
    09:00 +13°C° 0.1 mm 5 m/s 748 mmHg 86%
    10:00 +14°C° 0.1 mm 5 m/s 748 mmHg 85%
    11:00 +14°C° 0.1 mm 5 m/s 749 mmHg 84%
    12:00 +15°C° 0.1 mm 6 m/s 748 mmHg 84%
    13:00 +15°C° 0.1 mm 6 m/s 748 mmHg 83%
    14:00 +15°C° 0.1 mm 7 m/s 748 mmHg 83%
    15:00 +15°C° 0 mm 6 m/s 748 mmHg 82%
    16:00 +15°C° 0 mm 6 m/s 748 mmHg 81%
    17:00 +15°C° 0 mm 6 m/s 748 mmHg 79%
    18:00 +15°C° 0 mm 6 m/s 748 mmHg 79%
    19:00 +15°C° 0 mm 6 m/s 748 mmHg 79%
    20:00 +15°C° 0 mm 5 m/s 748 mmHg 79%
    21:00 +14°C° 0 mm 6 m/s 748 mmHg 78%
    22:00 +14°C° 0 mm 6 m/s 748 mmHg 77%
    23:00 +13°C° 0 mm 6 m/s 748 mmHg 76%

    Depois de amanhã, 31 Maio, Domingo

    Tempo Temperatura Precipitação Vento Pressão Humidade
    00:00 +13°C° 0 mm 6 m/s 748 mmHg 74%
    01:00 +11°C° 0 mm 6 m/s 748 mmHg 71%
    02:00 +11°C° 0 mm 6 m/s 748 mmHg 69%
    03:00 +10°C° 0 mm 6 m/s 748 mmHg 69%
    04:00 +10°C° 0 mm 6 m/s 748 mmHg 68%
    05:00 +10°C° 0 mm 6 m/s 748 mmHg 68%
    06:00 +11°C° 0 mm 6 m/s 748 mmHg 63%
    07:00 +14°C° 0 mm 7 m/s 749 mmHg 58%
    08:00 +15°C° 0 mm 7 m/s 749 mmHg 53%
    09:00 +16°C° 0 mm 7 m/s 749 mmHg 50%
    10:00 +17°C° 0 mm 7 m/s 749 mmHg 48%
    11:00 +18°C° 0 mm 7 m/s 749 mmHg 46%
    12:00 +18°C° 0 mm 7 m/s 749 mmHg 46%
    13:00 +19°C° 0 mm 6 m/s 749 mmHg 47%
    14:00 +19°C° 0 mm 6 m/s 750 mmHg 47%
    15:00 +19°C° 0 mm 6 m/s 750 mmHg 50%
    16:00 +17°C° 0 mm 5 m/s 750 mmHg 53%
    17:00 +17°C° 0 mm 5 m/s 750 mmHg 56%
    18:00 +15°C° 0 mm 5 m/s 750 mmHg 60%
    19:00 +13°C° 0 mm 4 m/s 751 mmHg 65%
    20:00 +12°C° 0 mm 3 m/s 751 mmHg 69%
    21:00 +10°C° 0 mm 3 m/s 751 mmHg 70%
    22:00 +9°C° 0 mm 3 m/s 752 mmHg 72%
    23:00 +8°C° 0 mm 2 m/s 752 mmHg 73%

    1 Junho, Segunda-feira

    Tempo Temperatura Precipitação Vento Pressão Humidade
    00:00 +7°C° 0 mm 2 m/s 752 mmHg 76%
    01:00 +6°C° 0 mm 2 m/s 752 mmHg 78%
    02:00 +5°C° 0 mm 2 m/s 753 mmHg 80%
    03:00 +6°C° 0 mm 2 m/s 753 mmHg 79%
    04:00 +6°C° 0 mm 2 m/s 753 mmHg 77%
    05:00 +8°C° 0 mm 1 m/s 753 mmHg 75%
    06:00 +8°C° 0 mm 2 m/s 753 mmHg 71%
    07:00 +9°C° 0 mm 2 m/s 753 mmHg 67%
    08:00 +12°C° 0 mm 2 m/s 753 mmHg 62%
    09:00 +13°C° 0 mm 2 m/s 753 mmHg 61%
    10:00 +12°C° 0 mm 3 m/s 753 mmHg 59%
    11:00 +13°C° 0 mm 3 m/s 752 mmHg 58%
    12:00 +14°C° 0 mm 3 m/s 752 mmHg 57%
    13:00 +14°C° 0 mm 3 m/s 752 mmHg 57%
    14:00 +16°C° 0 mm 3 m/s 752 mmHg 57%
    15:00 +14°C° 0.1 mm 3 m/s 751 mmHg 60%
    16:00 +14°C° 0.1 mm 3 m/s 751 mmHg 64%
    17:00 +14°C° 0.1 mm 3 m/s 751 mmHg 68%
    18:00 +13°C° 0.1 mm 3 m/s 751 mmHg 74%
    19:00 +13°C° 0.1 mm 2 m/s 751 mmHg 80%
    20:00 +10°C° 0.1 mm 2 m/s 751 mmHg 86%
    21:00 +10°C° 0.1 mm 2 m/s 750 mmHg 89%
    22:00 +10°C° 0.1 mm 2 m/s 750 mmHg 92%
    23:00 +9°C° 0.1 mm 2 m/s 750 mmHg 96%

    2 Junho, Terça-feira

    Tempo Temperatura Precipitação Vento Pressão Humidade
    00:00 +9°C° 0.1 mm 2 m/s 750 mmHg 96%
    01:00 +9°C° 0.1 mm 2 m/s 750 mmHg 97%
    02:00 +8°C° 0.1 mm 2 m/s 750 mmHg 98%
    03:00 +8°C° 0 mm 2 m/s 750 mmHg 97%
    04:00 +9°C° 0 mm 2 m/s 750 mmHg 96%
    05:00 +9°C° 0 mm 2 m/s 750 mmHg 96%
    06:00 +10°C° 0.2 mm 3 m/s 750 mmHg 90%
    07:00 +11°C° 0.2 mm 3 m/s 750 mmHg 84%
    08:00 +12°C° 0.2 mm 4 m/s 750 mmHg 79%
    09:00 +13°C° 0.2 mm 3 m/s 750 mmHg 73%
    10:00 +14°C° 0.2 mm 3 m/s 750 mmHg 66%
    11:00 +16°C° 0.2 mm 3 m/s 750 mmHg 60%
    12:00 +16°C° 0.1 mm 3 m/s 750 mmHg 58%
    13:00 +17°C° 0.1 mm 3 m/s 750 mmHg 55%
    14:00 +17°C° 0.1 mm 3 m/s 749 mmHg 52%
    15:00 +17°C° 0 mm 3 m/s 749 mmHg 51%
    16:00 +17°C° 0 mm 3 m/s 749 mmHg 51%
    17:00 +17°C° 0 mm 3 m/s 749 mmHg 50%
    18:00 +15°C° 0 mm 2 m/s 749 mmHg 57%
    19:00 +13°C° 0 mm 2 m/s 749 mmHg 63%
    20:00 +11°C° 0 mm 1 m/s 749 mmHg 70%
    21:00 +10°C° 0 mm 1 m/s 749 mmHg 72%
    22:00 +8°C° 0 mm 0 m/s 749 mmHg 74%
    23:00 +7°C° 0 mm 0 m/s 750 mmHg 75%

    3 Junho, Quarta-feira

    Tempo Temperatura Precipitação Vento Pressão Humidade
    00:00 +7°C° 0 mm 0 m/s 750 mmHg 76%
    01:00 +7°C° 0 mm 1 m/s 750 mmHg 77%
    02:00 +7°C° 0 mm 1 m/s 750 mmHg 77%
    03:00 +8°C° 0 mm 1 m/s 750 mmHg 76%
    04:00 +9°C° 0 mm 1 m/s 750 mmHg 75%
    05:00 +9°C° 0 mm 1 m/s 750 mmHg 73%
    06:00 +12°C° 0 mm 1 m/s 750 mmHg 67%
    07:00 +14°C° 0 mm 1 m/s 750 mmHg 62%
    08:00 +16°C° 0 mm 1 m/s 749 mmHg 56%
    09:00 +18°C° 0 mm 1 m/s 749 mmHg 53%
    10:00 +19°C° 0 mm 1 m/s 749 mmHg 49%
    11:00 +20°C° 0 mm 1 m/s 749 mmHg 46%
    12:00 +20°C° 0 mm 1 m/s 749 mmHg 47%
    13:00 +20°C° 0 mm 1 m/s 748 mmHg 48%
    14:00 +20°C° 0 mm 1 m/s 748 mmHg 49%
    15:00 +20°C° 0 mm 1 m/s 748 mmHg 51%
    16:00 +20°C° 0 mm 1 m/s 748 mmHg 53%
    17:00 +20°C° 0 mm 1 m/s 748 mmHg 55%
    18:00 +19°C° 0 mm 1 m/s 748 mmHg 63%
    19:00 +16°C° 0 mm 1 m/s 748 mmHg 71%
    20:00 +14°C° 0 mm 2 m/s 748 mmHg 78%
    21:00 +13°C° 0 mm 2 m/s 748 mmHg 83%
    22:00 +13°C° 0 mm 2 m/s 748 mmHg 87%
    23:00 +12°C° 0 mm 2 m/s 748 mmHg 92%
    Mostrar mais